{"data":{"norad_id":59310,"intl_designator":"2024-056Q","name":"STARLINK-31475","alt_names":[],"object_type":"PAYLOAD","status":"ACTIVE","operator":null,"country":"US","launch_date":"2024-03-24","launch_site_code":"AFETR","launch_vehicle":null,"mission":null,"orbit_class":"UNKNOWN","rcs_meters":null,"size_class":null,"mass_kg":null,"dimensions":null,"purposes":["comms"],"wikipedia_slug":null,"has_3d_model":false,"image_url":null,"decayed_at":null,"tle_current":{"epoch":"2026-05-25T01:47:18.066624Z","epoch_age_seconds":64690,"freshness":"FRESH","line1":"1 59310U 24056Q   26145.07451466  .00000730  00000+0  36041-4 0  9993","line2":"2 59310  43.0019 156.1092 0001119 276.2539  83.8185 15.27577171122996","mean_motion":15.27577171,"eccentricity":0.0001119,"inclination_deg":43.0019,"raan_deg":156.1092,"arg_perigee_deg":276.2539,"mean_anomaly_deg":83.8185,"bstar":3.6041e-5,"rev_number":12299,"period_min":94.26692329117,"perigee_km":482.28979942439,"apogee_km":483.82533476851,"semimajor_km":6861.1945670965,"source":"CELESTRAK","updated_at":"2026-05-25T13:38:18.900627Z"}}}